Date String (YYYY-MM-DD hh:mm:ss) UTC,Instrument flags,Ambient pressure (hPa),Sample flow (lpm),Bypass flow (lpm),Sample temperature (°C),Ambient temperature (°C),ASC tube jacket temperature (°C),LED temperature (°C),Box temperature (°C),Sample RH (%),Span deviation,Mass concentration (μg/m³),Mass concentration (μg/m³),Mass concentration (μg/m³)
DateTimeUTC,F1_M11,P_M11,Q1_M11,Q2_M11,T1_M11,T2_M11,T3_M11,T4_M11,T5_M11,U1_M11,ZSPAN_M11,X2_M11,X0_M11,X1_M11
2021-10-30 09:00:00,,0823.9,5.00,0.00,28.8,27.8,00.0,37.9,30.5,09.3,0000.0,0000.96,0005.61,0000.56
2021-10-30 09:01:00,,0823.9,4.99,0.00,28.8,27.8,00.0,37.9,30.5,09.3,0000.0,0000.91,0005.16,0000.54
2021-10-30 09:02:00,,0823.8,5.00,0.00,28.8,27.7,00.0,37.9,30.5,09.3,0000.0,0000.91,0003.75,0000.53
2021-10-30 09:03:00,,0823.8,5.01,0.00,28.8,27.7,00.0,37.9,30.5,09.3,0000.0,0000.86,0002.23,0000.52
2021-10-30 09:04:00,,0823.8,5.00,0.00,28.8,27.8,00.0,37.9,30.5,09.3,0000.0,0000.82,0001.89,0000.53
2021-10-30 09:05:00,,0823.8,5.01,0.00,28.8,27.7,00.0,37.9,30.5,09.3,0000.0,0000.80,0001.76,0000.52
2021-10-30 09:06:00,,0823.8,5.00,0.00,28.8,27.8,00.0,37.9,30.5,09.3,0000.0,0000.77,0002.67,0000.51
2021-10-30 09:07:00,,0823.8,4.99,0.00,28.8,27.8,00.0,37.9,30.5,09.3,0000.0,0000.76,0002.96,0000.52
2021-10-30 09:08:00,,0823.8,5.00,0.00,28.8,27.7,00.0,37.9,30.5,09.3,0000.0,0000.78,0003.01,0000.52
2021-10-30 09:09:00,,0823.9,4.99,0.00,28.8,27.7,00.0,37.9,30.5,09.2,0000.0,0000.83,0003.12,0000.53
2021-10-30 09:10:00,,0823.9,5.00,0.00,28.8,27.7,00.0,37.9,30.5,09.2,0000.0,0000.84,0003.03,0000.54
2021-10-30 09:11:00,,0823.9,4.99,0.00,28.8,27.7,00.0,37.9,30.5,09.3,0000.0,0000.85,0003.02,0000.55
2021-10-30 09:12:00,,0823.9,5.00,0.00,28.8,27.7,00.0,37.9,30.5,09.4,0000.0,0000.83,0002.92,0000.55
2021-10-30 09:13:00,,0824.0,5.00,0.00,28.8,27.7,00.0,37.9,30.5,09.3,0000.0,0000.82,0002.86,0000.55
2021-10-30 09:14:00,,0824.0,5.00,0.00,28.8,27.7,00.0,37.9,30.5,09.3,0000.0,0000.82,0002.96,0000.56
2021-10-30 09:15:00,,0823.9,4.99,0.00,28.8,27.8,00.0,37.9,30.5,09.3,0000.0,0000.82,0002.98,0000.57
2021-10-30 09:16:00,,0823.9,5.00,0.00,28.7,27.8,00.0,37.8,30.5,09.3,0000.0,0000.82,0002.98,0000.57
2021-10-30 09:17:00,,0823.9,5.00,0.00,28.7,27.7,00.0,37.8,30.4,09.3,0000.0,0000.83,0002.36,0000.58
2021-10-30 09:18:00,,0823.9,5.01,0.00,28.7,27.7,00.0,37.8,30.5,09.2,0000.0,0000.83,0002.66,0000.58
2021-10-30 09:19:00,,0824.0,4.99,0.00,28.7,27.7,00.0,37.8,30.4,09.2,0000.0,0000.84,0002.98,0000.58
2021-10-30 09:20:00,,0824.0,5.01,0.00,28.7,27.7,00.0,37.8,30.4,09.2,0000.0,0000.86,0003.09,0000.59
2021-10-30 09:21:00,,0824.0,5.00,0.00,28.7,27.7,00.0,37.8,30.4,09.2,0000.0,0000.89,0003.11,0000.59
2021-10-30 09:22:00,,0823.9,4.99,0.00,28.7,27.7,00.0,37.8,30.4,09.2,0000.0,0000.89,0003.13,0000.60
2021-10-30 09:23:00,,0824.0,5.00,0.00,28.7,27.7,00.0,37.8,30.5,09.2,0000.0,0000.94,0003.42,0000.60
2021-10-30 09:24:00,,0823.9,5.00,0.00,28.7,27.7,00.0,37.8,30.4,09.2,0000.0,0000.93,0003.51,0000.60
2021-10-30 09:25:00,,0823.9,4.99,0.00,28.7,27.7,00.0,37.8,30.4,09.2,0000.0,0000.94,0003.84,0000.59
2021-10-30 09:26:00,,0824.0,4.99,0.00,28.7,27.7,00.0,37.8,30.4,09.2,0000.0,0000.92,0003.62,0000.58
2021-10-30 09:27:00,,0823.9,5.00,0.00,28.7,27.7,00.0,37.8,30.4,09.2,0000.0,0000.92,0003.68,0000.58
2021-10-30 09:28:00,,0823.9,5.01,0.00,28.7,27.7,00.0,37.8,30.4,09.1,0000.0,0000.91,0003.64,0000.59
2021-10-30 09:29:00,,0823.9,4.98,0.00,28.7,27.7,00.0,37.8,30.4,09.0,0000.0,0000.92,0003.97,0000.58
2021-10-30 09:30:00,,0823.9,5.01,0.00,28.7,27.7,00.0,37.8,30.4,09.2,0000.0,0000.92,0003.28,0000.58
2021-10-30 09:31:00,,0824.0,4.99,0.00,28.7,27.7,00.0,37.8,30.4,09.2,0000.0,0000.88,0003.49,0000.58
2021-10-30 09:32:00,,0823.9,5.00,0.00,28.7,27.7,00.0,37.8,30.4,09.0,0000.0,0000.87,0003.55,0000.58
2021-10-30 09:33:00,,0823.9,5.00,0.00,28.7,27.7,00.0,37.8,30.4,09.1,0000.0,0000.91,0003.84,0000.59
2021-10-30 09:34:00,,0823.8,5.01,0.00,28.7,27.7,00.0,37.8,30.4,08.1,0000.0,0000.86,0003.62,0000.58
2021-10-30 09:35:00,,0823.8,5.00,0.00,28.7,27.7,00.0,37.8,30.5,07.6,0000.0,0000.83,0003.52,0000.56
2021-10-30 09:36:00,,0823.8,4.99,0.00,28.7,27.7,00.0,37.8,30.4,07.5,0000.0,0000.81,0003.20,0000.55
2021-10-30 09:37:00,,0823.8,5.00,0.00,28.7,27.7,00.0,37.8,30.4,07.5,0000.0,0000.78,0003.09,0000.52
2021-10-30 09:38:00,,0823.7,5.01,0.00,28.7,27.6,00.0,37.7,30.3,07.4,0000.0,0000.75,0003.05,0000.50
2021-10-30 09:39:00,,0823.8,5.00,0.00,28.7,27.6,00.0,37.7,30.3,07.4,0000.0,0000.71,0002.99,0000.46
2021-10-30 09:40:00,,0823.8,5.00,0.00,28.7,27.6,00.0,37.7,30.4,07.4,0000.0,0000.68,0002.30,0000.44
2021-10-30 09:41:00,,0823.8,4.99,0.00,28.7,27.6,00.0,37.7,30.4,07.4,0000.0,0000.64,0001.90,0000.42
2021-10-30 09:42:00,,0823.7,5.00,0.00,28.7,27.6,00.0,37.7,30.4,07.4,0000.0,0000.58,0001.54,0000.40
2021-10-30 09:43:00,,0823.7,5.01,0.00,28.7,27.7,00.0,37.7,30.4,07.4,0000.0,0000.53,0001.25,0000.37
2021-10-30 09:44:00,,0823.7,4.99,0.00,28.7,27.7,00.0,37.7,30.4,07.4,0000.0,0000.45,0000.95,0000.34
2021-10-30 09:45:00,,0823.7,5.01,0.00,28.6,27.6,00.0,37.7,30.3,07.5,0000.0,0000.41,0000.77,0000.31
2021-10-30 09:46:00,,0823.7,5.01,0.00,28.6,27.6,00.0,37.7,30.3,07.5,0000.0,0000.39,0000.76,0000.30
2021-10-30 09:47:00,,0823.7,4.99,0.00,28.6,27.6,00.0,37.7,30.3,07.6,0000.0,0000.40,0000.83,0000.30
2021-10-30 09:48:00,,0823.7,5.01,0.00,28.6,27.6,00.0,37.7,30.2,07.6,0000.0,0000.39,0000.80,0000.29
2021-10-30 09:49:00,,0823.7,5.00,0.00,28.6,27.5,00.0,37.7,30.2,07.6,0000.0,0000.37,0000.64,0000.29
2021-10-30 09:50:00,,0823.7,5.01,0.00,28.6,27.5,00.0,37.7,30.2,07.7,0000.0,0000.39,0000.66,0000.29
2021-10-30 09:51:00,,0823.6,5.00,0.00,28.6,27.5,00.0,37.7,30.2,07.7,0000.0,0000.38,0000.65,0000.28
2021-10-30 09:52:00,,0823.7,4.99,0.00,28.6,27.5,00.0,37.7,30.2,07.6,0000.0,0000.38,0000.65,0000.28
2021-10-30 09:53:00,,0823.6,5.01,0.00,28.5,27.5,00.0,37.7,30.2,07.6,0000.0,0000.40,0000.76,0000.28
2021-10-30 09:54:00,,0823.7,4.99,0.00,28.5,27.5,00.0,37.7,30.2,07.6,0000.0,0000.41,0000.84,0000.27
2021-10-30 09:55:00,,0823.7,5.00,0.00,28.5,27.4,00.0,37.7,30.2,07.7,0000.0,0000.43,0001.15,0000.27
2021-10-30 09:56:00,,0823.7,5.01,0.00,28.5,27.4,00.0,37.7,30.2,07.7,0000.0,0000.43,0001.55,0000.27
2021-10-30 09:57:00,,0823.7,4.99,0.00,28.5,27.4,00.0,37.7,30.2,07.6,0000.0,0000.44,0003.27,0000.27
2021-10-30 09:58:00,,0823.7,5.00,0.00,28.5,27.4,00.0,37.6,30.1,07.6,0000.0,0000.43,0003.69,0000.27
2021-10-30 09:59:00,,0823.7,5.01,0.00,28.5,27.4,00.0,37.6,30.1,07.7,0000.0,0000.43,0004.30,0000.27
